Location: Ahstedt
(52.2048°N, 10.1060°E)
Time: 00:30:48
(UTC+00:00)

Cosmos 2184 Rocket - Pass Details

Date: 18 January 2026
Orbit: 959 x 1001 km, 82.9° (Epoch: 17 February)

Event Time Altitude Azimuth Distance (km) Brightness Sun altitude
Rises 04:52:54 0° 193° (SSW) 3,648 6.9 -21.7°
Reaches altitude 10° 04:55:25 10° 194° (SSW) 2,701 6.2 -21.3°
Maximum altitude 05:01:36 78° 281° (W) 990 3.8 -20.4°
Drops below altitude 10° 05:07:48 10° 8° (N) 2,705 6.3 -19.4°
Sets 05:10:19 0° 10° (N) 3,655 7.0 -19.0°
